Location: Cerro Alto Campground
(35.4250°N, 120.7383°W)
Time: 05:00:25
(UTC-07:00)

Daily predictions for brighter satellites

Satellite Brightness Start Highest point End
(mag) Time Altitude Azimuth Time Altitude Azimuth Time Altitude Azimuth
FALCON 9 R/B 4.3 00:14:08 69° SW 00:16:22 79° SSE 01:01:31 10° E
CZ-3 Stage 3 4.4 01:54:30 75° S 01:54:30 75° S 03:01:15 10° E
SL-16 R/B 4.2 02:18:25 25° ENE 02:18:48 25° ENE 02:23:43 10° NNE
Cosmos 1943 Rocket 4.4 02:13:53 10° NNW 02:15:15 18° NNW 02:15:15 18° NNW
CZ-2D R/B 4.3 02:26:17 10° NE 02:28:34 20° ENE 02:28:34 20° ENE
Cosmos 2285 Rocket 4.1 03:28:21 74° NNE 03:28:21 74° NNE 03:34:07 10° NNE
Cosmos 1538 Rocket 4.4 03:42:01 60° E 03:42:01 60° E 03:46:55 10° NNE
USA 229 DEB 3.7 03:38:25 10° NNW 03:45:39 85° WSW 03:53:00 10° SSE
USA 229 3.7 03:38:32 10° NNW 03:45:46 85° WSW 03:53:06 10° SSE
COSMOS 2406 4.0 03:49:25 41° NW 03:49:25 41° NW 03:53:54 10° N
Cosmos 1300 4.5 03:53:30 29° NNE 03:53:30 29° NNE 03:55:30 10° NNE
Resurs 1-4 Rocket 2.9 03:47:51 10° N 03:51:41 41° NNW 03:51:41 41° NNW
Cosmos 2228 Rocket 4.0 03:54:30 45° E 03:54:30 45° E 03:58:40 10° NNE
Cosmos 1633 Rocket 3.9 03:51:11 10° N 03:54:31 48° NNE 03:54:31 48° NNE
Cosmos 1459 Rocket 4.2 03:57:49 43° SSE 03:59:44 64° E 04:05:44 10° NNE
Meteor 2-2 Rocket 4.5 03:59:49 53° SSE 04:01:11 72° E 04:07:12 10° NNE
SL-16 R/B 3.1 04:03:31 40° WNW 04:03:31 40° WNW 04:08:02 10° NNW
ARIANE 5 R/B 3.2 03:58:28 10° N 04:02:35 42° NW 04:02:35 42° NW
CZ-2D R/B 3.1 04:05:57 10° N 04:09:54 32° NW 04:09:54 32° NW
Cosmos 1328 Rocket 3.6 04:15:01 70° N 04:15:01 70° N 04:18:53 10° N
NOSS 3-1 (C) 4.1 04:11:33 10° NNW 04:19:22 82° ENE 04:27:53 10° SSE
Cosmos 1726 4.4 04:31:50 14° NW 04:31:50 14° NW 04:32:43 10° NNW
PSLV R/B 4.4 04:29:55 38° NNE 04:29:55 38° NNE 04:32:57 10° E
Cosmos 773 Rocket 4.1 04:31:00 52° WSW 04:31:46 57° WNW 04:36:59 10° N
Cosmos 2061 Rocket 4.0 04:28:52 35° SSW 04:31:49 78° W 04:38:17 10° N
COSMOS 2487 2.7 04:33:41 60° SE 04:33:53 62° ESE 04:37:23 10° NNE
Cosmos 2082 Rocket 2.4 04:31:19 31° S 04:33:59 68° ESE 04:39:35 10° NNE
Tiangong 2 1.9 04:35:03 50° NNE 04:35:03 50° NNE 04:37:44 10° ENE
Cosmos 1933 Rocket 3.5 04:34:47 10° N 04:39:16 86° E 04:42:00 23° S
ADEOS II 2.2 04:34:31 10° NNE 04:39:48 75° ESE 04:43:08 23° S
Cosmos 2016 Rocket 3.8 04:38:32 26° S 04:42:12 81° W 04:48:20 10° N
Cosmos 1151 Rocket 2.9 04:41:53 52° SSW 04:42:50 73° W 04:47:07 10° N
OAO 1 4.4 04:40:54 37° W 04:43:09 84° S 04:48:41 10° E
Atlas 2A Centaur Rocket 4.3 04:43:59 23° SSW 04:47:37 39° SE 05:12:04 10° E
Shenzhou-11 Module 3.2 04:47:29 33° NNW 04:47:38 34° NNW 04:50:30 10° NE
PSLV R/B 4.0 04:44:27 10° NNE 04:48:37 78° ESE 04:50:44 28° S
Cosmos 1892 2.6 04:49:46 10° N 04:53:38 89° E 04:56:54 14° S
SL-08 R/B 4.5 04:50:19 17° SSW 04:55:29 77° W 05:01:54 10° N
CZ-4B R/B 3.8 04:50:41 10° NNE 04:56:02 55° E 05:01:15 10° S
Meteor 2-3 Rocket 3.7 04:50:39 10° N 04:56:20 89° W 05:02:03 10° S
Cosmos 1725 Rocket 3.9 04:50:34 12° S 04:56:26 89° W 05:02:38 10° N
Okean O Rocket 1.8 04:54:14 10° NNE 04:58:39 72° E 05:02:27 14° S
Cosmos 1802 Rocket 4.3 04:58:57 26° SW 05:02:06 45° W 05:08:07 10° N
Cosmos 192 4.5 05:01:51 28° SW 05:04:15 56° WNW 05:09:09 10° N
Hubble Space Telescope 1.7 05:04:41 28° SSW 05:05:33 31° S 05:09:12 10° ESE
Cosmos 1656 3.7 05:00:35 10° NNW 05:06:19 85° ENE 05:12:00 10° SSE
Cosmos 2369 3.6 05:01:29 10° NNW 05:07:07 72° WSW 05:12:43 10° SSE
Lacrosse 5 2.2 05:03:14 10° NW 05:08:18 68° NE 05:13:20 10° SE
BREEZE M DEB (TANK) 4.0 05:04:45 10° WNW 05:09:04 66° SW 05:26:48 10° SE
PAYLOAD B 4.2 05:07:18 10° NNE 05:12:55 89° WNW 05:18:30 10° SSW
GPS 2-04 Rocket1 4.4 05:13:18 14° S 05:14:51 18° SSE 05:17:19 10° ESE
CZ-4B R/B 3.2 05:10:41 10° N 05:15:07 59° WNW 05:18:42 15° SSW
Kakehashi 4.1 05:13:11 21° WSW 05:17:04 59° S 05:26:30 10° E
OAO 2 Rocket 3.4 05:19:46 21° WSW 05:23:00 66° SSE 05:27:57 10° E
Tsikada Rocket 4.0 05:19:21 10° NNW 05:25:39 70° W 05:31:59 10° S
Cosmos 1833 Rocket 3.2 05:24:36 17° SW 05:28:33 41° WNW 05:33:53 10° N
ATLAS 2AS CENTAUR R/B 4.3 05:27:50 10° NNW 05:35:21 43° NE 05:42:19 10° ESE
ATLAS 5 CENTAUR R/B 4.0 05:33:05 10° SSE 05:36:38 23° ESE 05:40:20 10° ENE
NOSS 3-1 (A) 4.4 05:34:19 10° NW 05:41:43 43° WSW 05:49:37 10° S
Cosmos 1455 3.6 05:41:18 13° WSW 05:43:22 20° WNW 05:46:10 10° NNW
Cosmos 1624 Rocket 4.5 05:38:22 10° NNW 05:43:36 67° ENE 05:48:45 10° SSE
Cosmos 1869 Rocket 3.6 05:40:38 10° NNW 05:45:02 61° W 05:49:23 10° S
NOSS 3-3 (A) 4.1 05:41:30 10° SSW 05:47:32 82° ESE 05:54:05 10° NNE
NOSS 3-3 (C) 4.1 05:41:31 10° SSW 05:47:34 81° ESE 05:54:05 10° NNE
Cosmos 2084 4.2 05:44:16 12° WSW 05:47:35 32° NW 05:51:08 10° NNE
Cosmos 1980 Rocket 2.5 05:42:28 10° NNW 05:48:05 76° ENE 05:53:42 10° SSE
EO 1 Del DPAF 3.5 05:46:16 10° SSE 05:50:05 74° ENE 05:53:56 10° N
Cosmos 2242 Rocket 4.1 05:45:49 10° S 05:50:15 65° E 05:54:41 10° NNE
Abrixas 4.0 05:50:59 11° WSW 05:52:16 15° SW 05:53:50 10° S
NOSS 2-1 (C) 3.4 05:50:43 10° SSW 05:54:25 72° ESE 05:58:21 10° NE
NOSS 2-1 (D) 3.4 05:50:48 10° SSW 05:54:31 75° ESE 05:58:27 10° NE
Lacrosse 4 Rocket 2.4 05:55:02 10° S 05:59:20 54° ESE 06:03:43 10° NE
Timation 2 Rocket 4.2 05:55:10 10° SW 06:00:57 52° WNW 06:06:56 10° NNE
Cosmos 1862 3.5 05:58:05 10° N 06:02:10 80° E 06:06:13 10° S
Cosmos 1697 Rocket 3.0 05:57:28 10° NW 06:02:50 44° WSW 06:08:09 10° S
USA 234 3.4 05:56:17 10° NE 06:02:52 88° SE 06:09:25 10° SW
